Weather History for KSTP - March, 2014

Change the Weather History Date:

Wednesday, March 12, 2014

  Actual Average Record
Temperature  
Mean Temperature 24 °F -  
Max Temperature 30 °F 34 °F 60 °F (2015)
Min Temperature 19 °F 18 °F -2 °F (2009)
Degree Days  
Heating Degree Days 40    
Moisture  
Dew Point 11 °F    
Average Humidity 58    
Maximum Humidity 68    
Minimum Humidity 43    
Precipitation  
Precipitation 0.00 in - - ()
Sea Level Pressure  
Sea Level Pressure 30.12 in    
Wind  
Wind Speed 13 mph (NNW)    
Max Wind Speed 18 mph    
Max Gust Speed 25 mph    
Visibility 10 miles    
Events      
Averages and records for this station are not official NWS values.
T = Trace of Precipitation, MM = Missing Value Source: NWS Daily Summary

Daily Weather History Graph

Daily Weather History Graph

Search for Another Location

Airport or City:

Trip Planner

Search our weather history database for the weather conditions in past years. The results will help you decide how hot, cold, wet, or windy it might be!

Date:

Astronomy

Mar. 12, 2014 Rise Set
Actual Time 7:30 AM CDT 7:14 PM CDT
Civil Twilight 7:00 AM CDT 7:43 PM CDT
Nautical Twilight 6:27 AM CDT 8:17 PM CDT
Astronomical Twilight 5:52 AM CDT 8:52 PM CDT
Moon 3:38 PM CDT (3/12) 5:10 AM CDT (3/12)
Length of Visible Light 12h 42m
Length of Day
11h 44m
Waxing Gibbous, 85% of the Moon is Illuminated
Mar 12
Waxing Gibbous
Mar 16
Full
Mar 23
Last Quarter
Mar 30
New
Apr 7
First Quarter

Hourly Weather History & Observations

Time (CDT) Temp. Windchill Dew Point Humidity Pressure Visibility Wind Dir Wind Speed Gust Speed Precip Events Conditions
12:53 AM 30.0 °F 17.9 °F 16.0 °F 56% 30.04 in 10.0 mi NNW 18.4 mph 25.3 mph N/A   Clear
1:53 AM 28.9 °F 17.3 °F 16.0 °F 58% 30.05 in 10.0 mi NNW 16.1 mph 24.2 mph N/A   Overcast
2:53 AM 26.1 °F 14.0 °F 16.0 °F 66% 30.06 in 10.0 mi NW 15.0 mph - N/A   Scattered Clouds
3:53 AM 25.0 °F 12.2 °F 14.0 °F 63% 30.06 in 10.0 mi NW 16.1 mph - N/A   Overcast
4:53 AM 23.0 °F 8.7 °F 12.9 °F 65% 30.08 in 10.0 mi NNW 18.4 mph - N/A   Overcast
5:53 AM 21.0 °F 8.1 °F 10.0 °F 63% 30.09 in 10.0 mi NNW 13.8 mph - N/A   Clear
6:53 AM 19.9 °F 6.2 °F 9.0 °F 62% 30.11 in 10.0 mi NNW 15.0 mph - N/A   Clear
7:53 AM 19.0 °F 6.8 °F 8.1 °F 62% 30.13 in 10.0 mi NNW 11.5 mph - N/A   Clear
8:53 AM 19.9 °F 9.3 °F 9.0 °F 62% 30.15 in 10.0 mi North 9.2 mph - N/A   Clear
9:53 AM 21.0 °F 12.4 °F 10.0 °F 63% 30.17 in 10.0 mi North 6.9 mph - N/A   Clear
10:53 AM 21.9 °F 11.0 °F 10.0 °F 60% 30.17 in 10.0 mi North 10.4 mph - N/A   Clear
11:53 AM 23.0 °F 11.1 °F 10.0 °F 58% 30.17 in 10.0 mi North 12.7 mph - N/A   Clear
12:53 PM 24.1 °F 19.7 °F 10.9 °F 57% 30.17 in 10.0 mi Variable 3.5 mph - N/A   Scattered Clouds
1:53 PM 25.0 °F 18.1 °F 10.0 °F 53% 30.15 in 10.0 mi NNW 5.8 mph - N/A   Clear
2:53 PM 27.0 °F 18.0 °F 10.9 °F 51% 30.13 in 10.0 mi NNW 9.2 mph - N/A   Clear
3:53 PM 27.0 °F 16.7 °F 10.9 °F 51% 30.13 in 10.0 mi NNW 11.5 mph - N/A   Clear
4:53 PM 28.0 °F 21.7 °F 10.0 °F 47% 30.12 in 10.0 mi WNW 5.8 mph - N/A   Clear
5:53 PM 28.0 °F 19.3 °F 10.0 °F 47% 30.12 in 10.0 mi NW 9.2 mph - N/A   Clear
6:53 PM 27.0 °F - 7.0 °F 43% 30.12 in 10.0 mi Calm Calm - N/A   Clear
7:53 PM 26.1 °F 17.6 °F 10.0 °F 51% 30.13 in 10.0 mi WNW 8.1 mph - N/A   Clear
8:53 PM 25.0 °F 19.3 °F 10.9 °F 55% 30.14 in 10.0 mi NW 4.6 mph - N/A   Mostly Cloudy
9:53 PM 23.0 °F 13.9 °F 10.9 °F 60% 30.12 in 10.0 mi ESE 8.1 mph - N/A   Scattered Clouds
10:53 PM 21.0 °F 12.4 °F 9.0 °F 60% 30.11 in 10.0 mi SE 6.9 mph - N/A   Clear
11:53 PM 19.0 °F 11.1 °F 10.0 °F 68% 30.09 in 10.0 mi SSE 5.8 mph - N/A   Clear